Flag for Poland Weather past 2 weeks in Szczecin, Poland

Now
77 °F

Sunny.


Feels Like: 79 °F
Forecast: 66 / 93 °F
Wind: 10 mph from Southeast

Location: Szczecin Airport

Current Time: Jul 3, 2015 at 10:31:21 AM

Latest Report: Jul 3, 2015 at 10:00 AM


Visibility: 10 mi

Pressure: 30.33 "Hg

Humidity: 51%

Dew point: 57 °F

Location of SzczecinLocation

Historic Weather in Szczecin — Graph

°F

Szczecin temperature yesterday

Maximum temperature yesterday: 81 °F (at 4:30 PM)
Minimum temperature yesterday: 59 °F (at 3:30 AM)
Average temperature yesterday: 71 °F

Past Weeks' High & Low Weather Summary

 TemperatureHumidityPressure
High81 °F (Jul 2, 4:30 PM)100% (Jun 18, 9:00 AM)30.36 "Hg (Jun 18, 9:00 AM)
Low46 °F (Jun 22, 12:30 AM)28% (Jul 2, 5:00 PM)29.59 "Hg (Jun 23, 2:00 AM)
Average59 °F79%30.02 "Hg
* Reported Jun 18 9:00 AM — Jul 3 9:30 AM, Szczecin, Weather by CustomWeather, © 2015

Note: Actual official high and low records may vary slightly from our data, if they occured in-between our weather recording intervals... More about our weather records

Advertising

Szczecin weather history for previous 24 hours

 ConditionsComfort  
Time TempWeatherWind HumidityBarometerVisibility
9:30 AM
Fri, Jul 3
75 °FSunny.10 mph54%30.33 "Hg10 mi
9:00 AM73 °FSunny.8 mph53%30.33 "Hg10 mi
8:30 AM72 °FSunny.10 mph53%30.33 "Hg10 mi
8:00 AM70 °FSunny.8 mph57%30.33 "Hg10 mi
7:30 AM68 °FSunny.8 mph60%30.33 "Hg10 mi
7:00 AM66 °FSunny.10 mph60%30.33 "Hg10 mi
6:00 AM64 °FSunny.8 mph64%30.33 "Hg10 mi
5:30 AM63 °FClear.5 mph68%30.33 "Hg10 mi
5:00 AM63 °FClear.7 mph68%30.33 "Hg10 mi
4:30 AM64 °FClear.8 mph64%30.33 "Hg10 mi
4:00 AM63 °FClear.8 mph64%30.33 "Hg10 mi
3:30 AM64 °FClear.8 mph60%30.33 "Hg10 mi
3:00 AM64 °FClear.9 mph56%30.33 "Hg10 mi
2:30 AM66 °FClear.9 mph52%30.33 "Hg10 mi
2:00 AM66 °FClear.10 mph49%30.33 "Hg10 mi
1:30 AM68 °FClear.9 mph46%30.33 "Hg10 mi
1:00 AM68 °FClear.9 mph46%30.33 "Hg10 mi
12:30 AM68 °FClear.8 mph49%30.33 "Hg10 mi
11:30 PM
Thu, Jul 2
70 °FClear.8 mph46%30.30 "Hg10 mi
11:00 PM70 °FClear.7 mph46%30.30 "Hg10 mi
10:30 PM68 °FSunny.6 mph53%30.30 "Hg10 mi
10:00 PM70 °FSunny.5 mph53%30.30 "Hg10 mi
9:30 PM73 °FSunny.5 mph44%30.30 "Hg10 mi
9:00 PM77 °FSunny.6 mph36%30.30 "Hg10 mi
8:30 PM79 °FSunny.6 mph32%30.30 "Hg10 mi
8:00 PM79 °FSunny.7 mph32%30.30 "Hg10 mi
7:30 PM79 °FSunny.8 mph34%30.30 "Hg10 mi
7:00 PM81 °FSunny.8 mph32%30.30 "Hg10 mi
6:30 PM81 °FPassing clouds.9 mph32%30.27 "HgN/A
6:00 PM81 °FPassing clouds.9 mph32%30.30 "HgN/A
5:30 PM81 °FPassing clouds.8 mph32%30.30 "HgN/A
5:00 PM81 °FPassing clouds.12 mph28%30.30 "HgN/A
4:30 PM81 °FPassing clouds.9 mph30%30.30 "HgN/A
4:00 PM79 °FPassing clouds.10 mph32%30.30 "HgN/A
3:30 PM79 °FPassing clouds.12 mph30%30.30 "HgN/A
3:00 PM77 °FPassing clouds.10 mph32%30.30 "HgN/A
2:30 PM79 °FPassing clouds.8 mph32%30.33 "HgN/A
2:00 PM77 °FPassing clouds.10 mph30%30.33 "HgN/A
1:30 PM77 °FPassing clouds.9 mph30%30.33 "HgN/A
1:00 PM77 °FPassing clouds.12 mph32%30.33 "HgN/A
12:30 PM77 °FPassing clouds.10 mph32%30.33 "HgN/A
12:00 PM75 °FPassing clouds.8 mph36%30.36 "HgN/A
11:30 AM73 °FPassing clouds.8 mph38%30.36 "HgN/A
11:00 AM73 °FSunny.9 mph41%30.36 "Hg10 mi
10:30 AM72 °FPassing clouds.8 mph41%30.36 "HgN/A
10:00 AM72 °FSunny.9 mph44%30.36 "Hg10 mi
Weather by CustomWeather, © 2015

See weather overviewHow to use our weather pages